Content
SEND FEEDBACK

Daily
Averages
Monthly
Summary
United States of America

RIMROCK, ARIZONA


Home > North America > United States > Arizona
Elevation: 3830 feet     Latitude: 34 40N     Longitude: 111 43W

WEATHER
 
SELECT A DAY
Number of Records: 142,419;   Date Range: 1/4/95 - 12/27/14
 
SHARE

PRINT THIS DATA

[ ← Previous Day ]
WEATHER ALMANAC - JANUARY 16, 2014
[ Next Day → ]
[ °C ]   °F
Weather ElementAverageHighLow
Temperature28.4 °F64.4 °F (11:55 am) (1:35 pm)
Dewpoint6.3 °F15.8 °F (10:35 am) (7:00 pm)
Humidity20.2 %25 % (6:15 am)13 % (11:55 am)
Barometer30.25 in30.30 in (10:15 am)30.20 in (3:15 pm)
Wind Speed10.2 mph17.3 mph (1:55 pm)
Wind Gust25.3 mph (6:35 pm)
Weather ElementAverage
Visibility10 mi
Wind DirectionENE (80.3 °)

Weather ElementTotal
Precipitation---
Heating Degree Days32.8 (Base 65)
Averaged from 70 records on January 16, 2014
WEATHER CONDITIONS BREAKOUT
WIND DIRECTION BREAKOUT
WEATHER BY HOUR - JANUARY 16, 2014
[ °C ]   °F
Local TimeTemperatureDewpointHumidityBarometerVisibilityWind DirectionWind SpeedGust SpeedPrecipitationEventsConditions
12:35 AM50.0 °F12.2 °F22 %30.26 in10.0 miENE (70°)9.2 mphClear
12:55 AM50.0 °F12.2 °F22 %30.26 in10.0 miENE (60°)8.1 mphClear
1:15 AM50.0 °F12.2 °F22 %30.26 in10.0 miENE (60°)9.2 mphClear
1:35 AM50.0 °F12.2 °F22 %30.26 in10.0 miENE (60°)8.1 mphClear
1:55 AM50.0 °F12.2 °F22 %30.27 in10.0 miNE (50°)9.2 mphClear
2:15 AM50.0 °F12.2 °F22 %30.27 in10.0 miENE (60°)10.4 mphClear
2:35 AM50.0 °F12.2 °F22 %30.27 in10.0 miENE (60°)10.4 mphClear
2:55 AM50.0 °F12.2 °F22 %30.26 in10.0 miNE (50°)11.5 mphClear
3:15 AM50.0 °F10.4 °F20 %30.26 in10.0 miENE (60°)9.2 mphClear
3:35 AM48.2 °F12.2 °F24 %30.26 in10.0 miENE (60°)10.4 mphClear
3:55 AM48.2 °F12.2 °F24 %30.25 in10.0 miENE (70°)11.5 mphClear
4:15 AM50.0 °F10.4 °F20 %30.25 in10.0 miEast (80°)11.5 mph23.0 mphClear
4:35 AM48.2 °F12.2 °F24 %30.25 in10.0 miEast (80°)13.8 mph18.4 mphClear
4:55 AM50.0 °F12.2 °F22 %30.25 in10.0 miEast (80°)15.0 mph24.2 mphClear
5:15 AM50.0 °F12.2 °F22 %30.25 in10.0 miENE (70°)12.7 mph19.6 mphClear
5:35 AM48.2 °F12.2 °F24 %30.25 in10.0 miENE (60°)13.8 mph19.6 mphClear
5:55 AM48.2 °F12.2 °F24 %30.25 in10.0 miNNE (30°)8.1 mph21.9 mphClear
6:15 AM46.4 °F12.2 °F25 %30.25 in10.0 miNE (40°)15.0 mph20.7 mphClear
6:35 AM46.4 °F12.2 °F25 %30.25 in10.0 miNE (50°)15.0 mph21.9 mphClear
6:55 AM48.2 °F10.4 °F22 %30.25 in10.0 miENE (70°)10.4 mph17.3 mphClear
7:15 AM48.2 °F10.4 °F22 %30.26 in10.0 miNE (40°)15.0 mph20.7 mphClear
7:35 AM48.2 °F10.4 °F22 %30.26 in10.0 miNE (50°)15.0 mph21.9 mphClear
7:55 AM50.0 °F8.6 °F19 %30.26 in10.0 miENE (60°)11.5 mph19.6 mphClear
8:15 AM50.0 °F8.6 °F19 %30.26 in10.0 miEast (80°)8.1 mph19.6 mphClear
8:35 AM51.8 °F8.6 °F18 %30.27 in10.0 miNE (50°)15.0 mph19.6 mphClear
8:55 AM51.8 °F8.6 °F18 %30.28 in10.0 miENE (70°)9.2 mph18.4 mphClear
9:15 AM53.6 °F8.6 °F16 %30.29 in10.0 miNE (40°)6.9 mph17.3 mphClear
9:35 AM55.4 °F10.4 °F17 %30.29 in10.0 miNNW (340°)5.8 mphClear
9:55 AM53.6 °F12.2 °F19 %30.29 in10.0 miNNW (330°)4.6 mphClear
10:15 AM55.4 °F12.2 °F18 %30.30 in10.0 miCalmClear
10:35 AM55.4 °F15.8 °F21 %30.30 in10.0 miWest (270°)4.6 mphClear
10:55 AM55.4 °F14.0 °F20 %30.29 in10.0 miWNW (290°)3.5 mphClear
11:15 AM59.0 °F14.0 °F17 %30.29 in10.0 miWest (260°)3.5 mphClear
11:35 AM60.8 °F14.0 °F16 %30.28 in10.0 miCalmClear
11:55 AM64.4 °F12.2 °F13 %30.27 in10.0 miESE (120°)10.4 mphClear
12:15 PM64.4 °F12.2 °F13 %30.26 in10.0 miEast (100°)8.1 mph17.3 mphClear
12:35 PM62.6 °F12.2 °F14 %30.25 in10.0 miEast (100°)9.2 mph19.6 mphClear
12:55 PM64.4 °F12.2 °F13 %30.25 in10.0 miEast (90°)13.8 mph20.7 mphClear
1:35 PM0.0 °F0.0 °F30.22 in10.0 miEast (90°)13.8 mph20.7 mphClear
1:55 PM0.0 °F0.0 °F30.22 in10.0 miEast (90°)17.3 mph24.2 mphClear
2:15 PM0.0 °F0.0 °F30.21 in10.0 miENE (60°)12.7 mph19.6 mphClear
2:35 PM0.0 °F0.0 °F30.21 in10.0 miEast (80°)15.0 mph24.2 mphClear
2:55 PM0.0 °F0.0 °F30.21 in10.0 miEast (90°)13.8 mph19.6 mphClear
3:15 PM0.0 °F0.0 °F30.20 in10.0 miEast (100°)10.4 mph16.1 mphClear
3:35 PM0.0 °F0.0 °F30.21 in10.0 miEast (90°)8.1 mphClear
3:55 PM0.0 °F0.0 °F30.21 in10.0 miESE (110°)6.9 mphClear
4:15 PM0.0 °F0.0 °F30.21 in10.0 miEast (100°)10.4 mphClear
4:35 PM0.0 °F0.0 °F30.21 in10.0 miEast (90°)12.7 mph18.4 mphClear
4:55 PM0.0 °F0.0 °F30.21 in10.0 miENE (70°)9.2 mph17.3 mphClear
5:15 PM0.0 °F0.0 °F30.22 in10.0 miENE (70°)16.1 mph23.0 mphClear
5:35 PM0.0 °F0.0 °F30.23 in10.0 miENE (60°)10.4 mph20.7 mphClear
5:55 PM0.0 °F0.0 °F30.23 in10.0 miENE (60°)12.7 mph16.1 mphClear
6:15 PM0.0 °F0.0 °F30.23 in10.0 miENE (60°)12.7 mph20.7 mphClear
6:35 PM0.0 °F0.0 °F30.24 in10.0 miENE (60°)15.0 mph25.3 mphClear
6:55 PM0.0 °F0.0 °F30.24 in10.0 miENE (60°)16.1 mph23.0 mphClear
7:15 PM0.0 °F0.0 °F30.24 in10.0 miENE (60°)15.0 mph24.2 mphClear
7:35 PM0.0 °F0.0 °F30.24 in10.0 miENE (60°)15.0 mph24.2 mphClear
7:55 PM0.0 °F0.0 °F30.25 in10.0 miENE (60°)11.5 mphClear
8:15 PM0.0 °F0.0 °F30.24 in10.0 miENE (60°)13.8 mph17.3 mphClear
8:35 PM0.0 °F0.0 °F30.25 in10.0 miENE (60°)13.8 mph20.7 mphClear
8:55 PM0.0 °F0.0 °F30.26 in10.0 miNE (50°)11.5 mph18.4 mphClear
9:15 PM0.0 °F0.0 °F30.26 in10.0 miNE (40°)10.4 mph17.3 mphClear
9:35 PM0.0 °F0.0 °F30.27 in10.0 miNE (50°)4.6 mphClear
9:55 PM0.0 °F0.0 °F30.28 in10.0 miENE (60°)6.9 mphClear
10:15 PM0.0 °F0.0 °F30.28 in10.0 miNE (50°)9.2 mph16.1 mphClear
10:35 PM0.0 °F0.0 °F30.28 in10.0 miENE (60°)4.6 mphClear
10:55 PM0.0 °F0.0 °F30.29 in10.0 miNNE (20°)4.6 mphClear
11:15 PM0.0 °F0.0 °F30.28 in10.0 miEast (100°)11.5 mph17.3 mphClear
11:35 PM0.0 °F0.0 °F30.28 in10.0 miNE (40°)4.6 mphClear
11:55 PM0.0 °F0.0 °F30.27 in10.0 miCalmClear
Hourly data recorded from KSEZ, located miles away from Rimrock, Arizona







STORIES FROM OUR PARTNERS